| time (UTC) | temp C | wind direction | speed KPH | gust KPH | rain 1hr cm | rain 24hr cm | rain mn cm | humidity % | barometer mb |
| 20260505031525 | 17 | 167 | 4.8 | 12.9 | 0.00 | 0.00 | 0.00 | 35 | 1016.2 |
| 20260505030021 | 18 | 227 | 1.6 | 8.0 | 0.00 | 0.00 | 0.00 | 34 | 1016.4 |
| 20260505024535 | 18 | 150 | 3.2 | 9.7 | 0.00 | 0.00 | 0.00 | 33 | 1016.5 |
| 20260505023015 | 18 | 148 | 1.6 | 8.0 | 0.00 | 0.00 | 0.00 | 33 | 1016.3 |
| 20260505021514 | 19 | 161 | 1.6 | 4.8 | 0.00 | 0.00 | 0.00 | 32 | 1016.2 |
| 20260505020011 | 19 | 200 | 1.6 | 4.8 | 0.00 | 0.00 | 0.00 | 32 | 1016.2 |
| 20260505014511 | 19 | 165 | 0.0 | 3.2 | 0.00 | 0.00 | 0.00 | 31 | 1016.1 |
| 20260505013018 | 19 | 137 | 1.6 | 6.4 | 0.00 | 0.00 | 0.00 | 31 | 1016.0 |
| 20260505011510 | 19 | 216 | 0.0 | 3.2 | 0.00 | 0.00 | 0.00 | 30 | 1015.6 |
| 20260505010009 | 20 | 218 | 1.6 | 4.8 | 0.00 | 0.00 | 0.00 | 29 | 1015.6 |
| 20260505004510 | 20 | 217 | 0.0 | 4.8 | 0.00 | 0.00 | 0.00 | 27 | 1015.5 |
| 20260505003013 | 21 | 218 | 0.0 | 6.4 | 0.00 | 0.00 | 0.00 | 26 | 1015.3 |
| 20260505001508 | 21 | 221 | 0.0 | 4.8 | 0.00 | 0.00 | 0.00 | 25 | 1015.3 |
| 20260505000024 | 22 | 200 | 1.6 | 8.0 | 0.00 | 0.00 | 0.00 | 24 | 1015.2 |
| 20260504234508 | 22 | 194 | 1.6 | 11.3 | 0.00 | 0.00 | 0.00 | 22 | 1015.0 |
| 20260504233010 | 22 | 196 | 1.6 | 14.5 | 0.00 | 0.00 | 0.00 | 21 | 1014.9 |
| 20260504231521 | 23 | 233 | 3.2 | 16.1 | 0.00 | 0.00 | 0.00 | 22 | 1014.8 |
| 20260504230016 | 23 | 150 | 4.8 | 12.9 | 0.00 | 0.00 | 0.00 | 21 | 1014.7 |
| 20260504224514 | 23 | 188 | 6.4 | 17.7 | 0.00 | 0.00 | 0.00 | 20 | 1014.8 |
| 20260504223010 | 23 | 209 | 3.2 | 14.5 | 0.00 | 0.00 | 0.00 | 19 | 1014.8 |
| 20260504221510 | 23 | 181 | 4.8 | 12.9 | 0.00 | 0.00 | 0.00 | 19 | 1014.7 |
| 20260504220012 | 23 | 123 | 3.2 | 14.5 | 0.00 | 0.00 | 0.00 | 18 | 1014.8 |
| 20260504214503 | 24 | 248 | 8.0 | 20.9 | 0.00 | 0.00 | 0.00 | 19 | 1014.8 |
| 20260504213009 | 24 | 261 | 8.0 | 19.3 | 0.00 | 0.00 | 0.00 | 18 | 1014.7 |
| 20260504211501 | 24 | 130 | 4.8 | 14.5 | 0.00 | 0.00 | 0.00 | 19 | 1014.7 |
| 20260504210001 | 24 | 186 | 4.8 | 17.7 | 0.00 | 0.00 | 0.00 | 19 | 1014.9 |
| 20260504204604 | 24 | 147 | 6.4 | 16.1 | 0.00 | 0.00 | 0.00 | 18 | 1015.0 |
| 20260504203103 | 24 | 242 | 8.0 | 17.7 | 0.00 | 0.00 | 0.00 | 16 | 1015.2 |
| 20260504201559 | 24 | 261 | 4.8 | 14.5 | 0.00 | 0.00 | 0.00 | 20 | 1015.4 |
| 20260504200100 | 23 | 216 | 3.2 | 12.9 | 0.00 | 0.00 | 0.00 | 22 | 1015.7 |
| 20260504194608 | 24 | 221 | 8.0 | 14.5 | 0.00 | 0.00 | 0.00 | 23 | 1015.7 |
| 20260504193053 | 23 | 199 | 4.8 | 14.5 | 0.00 | 0.00 | 0.00 | 22 | 1016.0 |
| 20260504191552 | 23 | 262 | 6.4 | 19.3 | 0.00 | 0.00 | 0.00 | 22 | 1015.9 |
| 20260504190114 | 23 | 294 | 9.7 | 19.3 | 0.00 | 0.00 | 0.00 | 24 | 1016.1 |
| 20260504184555 | 23 | 182 | 3.2 | 14.5 | 0.00 | 0.00 | 0.00 | 25 | 1016.4 |
| 20260504183046 | 23 | 200 | 3.2 | 9.7 | 0.00 | 0.00 | 0.00 | 25 | 1016.3 |
| 20260504181547 | 23 | 96 | 4.8 | 16.1 | 0.00 | 0.00 | 0.00 | 25 | 1016.7 |
| 20260504180114 | 23 | 261 | 3.2 | 6.4 | 0.00 | 0.00 | 0.00 | 22 | 1016.9 |
| 20260504174541 | 23 | 229 | 1.6 | 6.4 | 0.00 | 0.00 | 0.00 | 19 | 1016.9 |
| 20260504173039 | 22 | 43 | 4.8 | 9.7 | 0.00 | 0.00 | 0.00 | 18 | 1017.2 |
| 20260504171534 | 22 | 259 | 4.8 | 14.5 | 0.00 | 0.00 | 0.00 | 19 | 1017.4 |
| 20260504120113 | 8 | 265 | 0.0 | 0.0 | 0.00 | 0.00 | 0.00 | 62 | 1018.3 |
| 20260504081533 | 11 | 205 | 1.6 | 4.8 | 0.00 | 0.00 | 0.00 | 51 | 1018.0 |
| 20260504050014 | 13 | 178 | 3.2 | 11.3 | 0.00 | 0.00 | 0.00 | 43 | 1018.0 |
| 20260504044513 | 13 | 244 | 1.6 | 14.5 | 0.00 | 0.00 | 0.00 | 44 | 1018.4 |
| 20260504043013 | 13 | 136 | 1.6 | 8.0 | 0.00 | 0.00 | 0.00 | 44 | 1018.3 |
| 20260504041512 | 13 | 144 | 3.2 | 8.0 | 0.00 | 0.00 | 0.00 | 44 | 1018.4 |
| 20260504040012 | 13 | 149 | 0.0 | 8.0 | 0.00 | 0.00 | 0.00 | 44 | 1018.7 |
| 20260504034516 | 13 | 200 | 1.6 | 8.0 | 0.00 | 0.00 | 0.00 | 45 | 1018.7 |
| 20260504033010 | 13 | 183 | 1.6 | 4.8 | 0.00 | 0.00 | 0.00 | 44 | 1018.6 |